OBJECT P, 57179

Orbit data source: Space-Track

You're viewing an Uncataloged Satellite

Recently launched and/or uncataloged satellites may have evolving metadata. Metadata may include but not limited to: Owner, Maufacturer, Bus, Motor, and Mission.

OBJECT P, 57179 is a satellite in SSO that was launched on Tue, 27 Jun 2023 UTC via a SOYUZ-2-1B launch vehicle from the Vostochny Cosmodrome (VOSTO). Unknown objects in Earth's orbit typically refer to objects detected orbiting the Earth but have not yet been identified or cataloged. These objects could be anything from previously untracked satellites, spent rocket stages, debris from satellite collisions, or even natural meteoroids temporarily captured by Earth's gravity.

Loading next visibility...
Identifier
57179, 2023-091P
Orbit
SSO
Country
Flag of TBDTBD
Related business
None
Manufacturer
Unknown
Mission
Operational Commercial Communications
Bus & Motor
Unknown
Mass
Unknown
Launch date (UTC)
2023-06-27 (3 years ago)
Launch vehicle
SOYUZ-2-1B
Launch site
Vostochny Cosmodrome (VOSTO)
Object type
Unknown
Shape & HBR
Box + 2 Pan, 1.5 m
Radar Cross Section
1.055 m², Medium (>0.1 m² and < 1m²)

Expand to show TLE details & history
Last TLE update: 7 hours ago

TLE from 7 hours ago
0 OBJECT P
1 57179U 23091P   26162.80731403  .00003468  00000-0  18122-3 0  9995
2 57179  97.5101 218.8496 0016008 139.7816 220.4604 15.16447338162977
Epoch: 2026-06-11T19:22Z
TLE epoch observation values (Epoch: 2026-06-11T19:22:31.932Z)
Latitude
-0.00007°
Longitude
28.07075°
Altitude
528.078 km
Speed
7.594 km/s
True Right ascension
14h 35m 23s
True Declination
0° 00' 00"
Sunlit
Object was in full shadow at epoch
Visualization orbit readout
Latitude
Unknown
Longitude
Unknown
Altitude
Unknown
Speed
Unknown
Apparent Right ascension
Unknown
Apparent Declination
Unknown
Sunlit
N/A
Visualization observer readout
Local Sidereal Time
12:57:16
Azimuth
Unknown
Elevation
Unknown
Doppler factor
Unknown
Orbital elements
Apogee altitude
524.595 km
Perigee altitude
502.531 km
Semi-major axis
6,891.7 km
Eccentricity
0.0016
Inclination
97.5101°
RAAN
218.8496°
Arg. of periapsis
139.7816°
True anomaly
220.34154°
Mean anomaly
220.4604°
Eccentric anomaly
220.40095°
Mean motion
3.79362 °/min
Orbital period
94.9 mins
BSTAR
0.00018122
Loading maneuver chart data...
Computing Atmospheric mass density...
Loading historical data...
Loading historical data...
Loading historical data...
Loading historical data...
Loading historical data...
Loading historical data...
Loading historical data...

Documentation

Showing up to 5 results
|